[[{"header":{"parameterUnit":"m.s-1","parameterCategory":1,"la1":30.2991,"la2":30.254,"lo1":-89.0895,"lo2":-89.0444,"dy":0.0017,"dx":0.0017,"nx":28,"ny":28,"refTime":"2023-10-11T03:00:00:Z","depth":0,"parameterNumber":2,"parameterNumberName":"U-component_of_WINDS"},"data":[0,0,0,0,0,0,0,0,0,0,0,0,0,0,0,0,0,0,0,0,0,0,0,0,0,0,0,0,0,0,0,0,0,0,0,0,0,0,0,0,0,0,0,0,0,0,0,0,0,0,0,0,0,0,0,0,0,0,-8.6145,-8.6145,0,-8.6101,-8.61,-8.61,-8.5929,-8.5925,-8.5921,-8.5918,-8.5876,-8.5878,-8.5881,0,0,0,0,0,0,0,0,0,0,0,0,0,-8.6084,-8.6087,-8.6145,-8.6144,-8.6144,-8.6101,-8.61,-8.61,-8.593,-8.5925,-8.592,-8.5916,-8.5875,-8.5878,-8.5881,0,0,0,0,0,0,0,0,0,0,0,0,0,-8.6083,-8.6087,-8.6145,-8.6054,-8.6045,-8.6101,-8.61,-8.6099,-8.5931,-8.5925,-8.5919,-8.5914,-8.5874,-8.5878,-8.5882,-8.6023,0,0,-8.5893,-8.5895,0,0,0,0,0,0,0,0,-8.6083,-8.6085,-8.6068,-8.606,-8.6051,-8.6014,-8.6063,-8.6074,-8.5932,-8.5974,-8.5917,-8.5911,-8.5927,-8.5926,-8.5931,-8.6021,-8.6019,-8.5894,-8.5896,-8.5898,-8.5899,0,0,0,0,0,0,0,-8.6083,-8.6086,-8.6127,-8.6068,-8.6057,-8.6016,-8.6009,-8.6065,-8.5984,-8.597,-8.5958,-8.5955,-8.5921,-8.5928,-8.5929,-8.6019,-8.5894,-8.5897,-8.5899,-8.5901,-8.6221,-8.6227,0,0,0,0,0,0,-8.6096,-8.6087,-8.6129,-8.6126,-8.6053,-8.6022,-8.6014,-8.6032,-8.5983,-8.597,-8.596,-8.5947,-8.5924,-8.5924,-8.5927,-8.6088,-8.5898,-8.5901,-8.5903,-8.6215,-8.6222,-8.6229,0,0,0,0,0,0,-8.6096,-8.6101,-8.6131,-8.6103,-8.6104,-8.6029,-8.605,-8.6034,-8.604,-8.5975,-8.596,-8.5981,-8.5919,-8.5921,-8.6,-8.6084,-8.5903,-8.5906,-8.6208,-8.6217,-8.6226,-8.6413,0,0,0,0,0,0,-8.6095,-8.6102,-8.6155,-8.6106,-8.6106,-8.6205,-8.6056,-8.6038,-8.6047,-8.603,-8.5991,-8.5979,-8.5915,-8.5995,-8.6004,-8.6086,-8.5909,-8.62,-8.6212,-8.6223,-8.6399,-8.6428,-8.6452,0,0,0,0,0,-8.6093,-8.6211,-8.6159,-8.6165,-8.617,-8.621,-8.621,-8.6133,-8.6054,-8.6107,-8.6065,-8.598,-8.6073,-8.6004,-8.6013,-8.6098,-8.6194,-8.6208,-8.6222,-8.6387,-8.6422,-8.6451,0,0,0,0,0,0,-8.6274,-8.6203,-8.6144,-8.6249,-8.6237,-8.6181,-8.6245,-8.6172,-8.6183,-8.6167,-8.6071,-8.6064,-8.6156,-8.6134,-8.6059,-8.6231,-8.6119,-8.6136,-8.6242,-8.6275,-8.6301,-8.6305,-8.5913,0,0,0,0,0,-8.6326,-8.6363,-8.6299,-8.6398,-8.6394,-8.6321,-8.6336,-8.6277,-8.626,-8.6255,-8.6218,-8.6207,-8.6233,-8.6252,-8.6273,-8.6394,-8.6384,-8.6457,-8.6484,-8.6506,-8.6521,-8.6583,-8.6615,-8.6275,-8.6275,-8.6275,0,0,-8.6434,-8.6399,-8.6429,-8.6433,-8.6417,-8.6458,-8.6318,-8.6368,-8.6398,-8.6263,-8.6334,-8.6307,-8.6288,-8.6388,-8.6431,-8.6373,-8.6613,-8.6524,-8.6542,-8.6545,-8.6601,-8.6633,-8.6662,-8.6284,-8.6283,-8.6281,0,0,-8.6652,-8.663,-8.6709,-8.6695,-8.667,-8.662,-8.664,-8.6594,-8.6571,-8.664,-8.6539,-8.6574,-8.6621,-8.6611,-8.6612,-8.6825,-8.6747,-8.6834,-8.6973,-8.7035,-8.7061,-8.7085,-8.716,-8.7189,-8.6849,-8.685,-8.685,0,-8.679,-8.6847,-8.676,-8.6815,-8.682,-8.6697,-8.6777,-8.6768,-8.6753,-8.6759,-8.6694,-8.675,-8.6728,-8.6824,-8.6876,-8.6881,-8.69,-8.6839,-8.7064,-8.7087,-8.7107,-8.7178,-8.7207,-8.6861,-8.6859,-8.6858,-8.6857,0,-8.7018,-8.7059,-8.7126,-8.7112,-8.7124,-8.7192,-8.7115,-8.7138,-8.7078,-8.7035,-8.7107,-8.7076,-8.7088,-8.7106,-8.7049,-8.7194,-8.7159,-8.7081,-8.6967,-8.7152,-8.7217,-8.7244,-8.6876,-8.6872,-8.6869,-8.6866,0,0,-8.7352,-8.7286,-8.7312,-8.7303,-8.7266,-8.7297,-8.7359,-8.7368,-8.739,-8.7383,-8.7433,-8.7475,-8.7401,-8.7403,-8.7343,-8.7397,-8.7567,-8.7311,-8.7309,-8.736,-8.7725,-8.7784,-8.7817,-8.7514,-8.7519,-8.7523,-8.7726,0,-8.7559,-8.766,-8.7582,-8.7697,-8.7734,-8.7616,-8.767,-8.7654,-8.7615,-8.7641,-8.7598,-8.7629,-8.753,-8.753,-8.7578,-8.7536,-8.7639,-8.752,-8.7561,-8.7563,-8.757,-8.7851,-8.7914,-8.8108,-8.7751,-8.7755,-8.7758,0,-8.7816,-8.7818,-8.7937,-8.789,-8.7902,-8.7952,-8.7953,-8.7979,-8.7958,-8.7926,-8.7927,-8.7852,-8.7909,-8.7797,-8.7875,-8.7796,-8.7808,-8.779,-8.7795,-8.7797,-8.7673,-8.7861,-8.8167,-8.8197,-8.7798,-8.7795,-8.7792,0,-8.8048,-8.808,-8.8154,-8.8151,-8.8098,-8.8136,-8.8116,-8.8088,-8.8098,-8.81,-8.8106,-8.8115,-8.8121,-8.813,-8.806,-8.7984,-8.8148,-8.8029,-8.8123,-8.8126,-8.8164,-8.8163,-8.8478,-8.8172,-8.8171,-8.8171,-8.817,0,-8.8288,-8.8366,-8.8257,-8.8304,-8.8386,-8.8295,-8.838,-8.8348,-8.8324,-8.8362,-8.8261,-8.83,-8.8204,-8.8233,-8.8178,-8.8251,-8.8255,-8.8231,-8.8215,-8.824,-8.8243,-8.8247,-8.8232,-8.8178,-8.8176,-8.8175,-8.8174,0,-8.8562,-8.8492,-8.8566,-8.8508,-8.8496,-8.856,-8.8511,-8.8552,-8.8505,-8.8554,-8.8561,-8.8488,-8.8516,-8.8446,-8.8465,-8.8428,-8.8533,-8.8496,-8.854,-8.8529,-8.8627,-8.8619,-8.8956,-8.8996,-8.8665,-8.8668,-8.8671,0,-8.8721,-8.8777,-8.8725,-8.8742,-8.8727,-8.8756,-8.8765,-8.8677,-8.8691,-8.867,-8.8713,-8.8732,-8.8743,-8.8794,-8.8744,-8.8757,-8.872,-8.8837,-8.8721,-8.8744,-8.8721,-8.8719,-8.8724,-8.8861,-8.8865,-8.8869,-8.8871,0,-8.901,-8.8972,-8.8988,-8.8992,-8.9004,-8.9004,-8.8996,-8.9017,-8.8923,-8.8943,-8.8969,-8.8978,-8.8995,-8.9016,-8.9017,-8.8997,-8.892,-8.8908,-8.893,-8.8956,-8.8979,-8.8968,-8.8606,-8.8901,-8.8898,-8.8896,-8.8894,-8.8893,-8.9231,-8.9274,-8.9244,-8.9264,-8.9249,-8.9243,-8.9278,-8.9234,-8.9254,-8.926,-8.9207,-8.9245,-8.922,-8.9214,-8.9202,-8.923,-8.9177,-8.921,-8.9218,-8.9228,-8.9244,-8.8974,-8.9231,-8.923,-8.9229,-8.9228,-8.9227,0,-8.9514,-8.9488,-8.9508,-8.9499,-8.9515,-8.9437,-8.9424,-8.9444,-8.9477,-8.946,-8.9472,-8.9502,-8.952,-8.9471,-8.9482,-8.9515,-8.9479,-8.9521,-8.9518,-8.9515,-8.9291,-8.927,-8.9549,-8.9549,-8.9549,-8.9549,-8.9549,-8.9549,-8.9664,-8.9733,-8.9692,-8.9752,-8.9725,-8.9759,-8.9758,-8.9753,-8.9738,-8.9775,-8.979,-8.9756,-8.9726,-8.9734,-8.9748,-8.9733,-8.9742,-8.9796,-8.9769,-8.9562,-8.953,-8.9501,-8.9481,-8.9799,-8.9799,-8.999,-8.9992,-8.9993]},{"header":{"parameterUnit":"m.s-1","parameterCategory":1,"la1":30.2991,"la2":30.254,"lo1":-89.0895,"lo2":-89.0444,"dy":0.0017,"dx":0.0017,"nx":28,"ny":28,"refTime":"2023-10-11T03:00:00:Z","depth":0,"parameterNumber":3,"parameterNumberName":"V-component_of_WINDS"},"data":[0,0,0,0,0,0,0,0,0,0,0,0,0,0,0,0,0,0,0,0,0,0,0,0,0,0,0,0,0,0,0,0,0,0,0,0,0,0,0,0,0,0,0,0,0,0,0,0,0,0,0,0,0,0,0,0,0,0,-8.3624,-8.3626,0,-8.3807,-8.3809,-8.3811,-8.3674,-8.3668,-8.3662,-8.3657,-8.3849,-8.3859,-8.387,0,0,0,0,0,0,0,0,0,0,0,0,0,-8.3157,-8.3166,-8.3623,-8.3626,-8.3628,-8.3807,-8.3809,-8.3812,-8.3675,-8.3668,-8.3661,-8.3654,-8.3845,-8.3858,-8.3871,0,0,0,0,0,0,0,0,0,0,0,0,0,-8.3352,-8.317,-8.3623,-8.3581,-8.3579,-8.3806,-8.3809,-8.3813,-8.3677,-8.3668,-8.3659,-8.365,-8.3841,-8.3856,-8.3872,-8.4151,0,0,-8.3921,-8.3928,0,0,0,0,0,0,0,0,-8.3341,-8.337,-8.3585,-8.3585,-8.3583,-8.3708,-8.3715,-8.3926,-8.3679,-8.364,-8.3656,-8.3646,-8.381,-8.3828,-8.3882,-8.416,-8.4169,-8.3923,-8.3933,-8.3939,-8.3944,0,0,0,0,0,0,0,-8.3328,-8.3361,-8.3696,-8.3589,-8.3587,-8.3554,-8.3572,-8.3755,-8.3773,-8.3643,-8.3633,-8.3657,-8.3807,-8.3867,-8.3885,-8.4172,-8.3922,-8.3937,-8.3947,-8.3953,-8.4689,-8.4698,0,0,0,0,0,0,-8.3318,-8.3351,-8.369,-8.3702,-8.3437,-8.357,-8.359,-8.3677,-8.3771,-8.3776,-8.3664,-8.3649,-8.3844,-8.3867,-8.3892,-8.4225,-8.3939,-8.3954,-8.3964,-8.4679,-8.4691,-8.4702,0,0,0,0,0,0,-8.3309,-8.335,-8.3683,-8.3524,-8.3564,-8.3588,-8.3687,-8.3686,-8.3745,-8.3787,-8.379,-8.3721,-8.3838,-8.3869,-8.4088,-8.423,-8.3962,-8.3976,-8.4667,-8.4683,-8.4696,-8.4895,0,0,0,0,0,0,-8.3296,-8.3347,-8.3453,-8.3527,-8.3573,-8.3876,-8.3696,-8.3696,-8.3773,-8.3755,-8.3841,-8.3847,-8.3833,-8.4065,-8.4104,-8.4247,-8.3989,-8.4655,-8.4674,-8.4692,-8.4876,-8.4914,-8.4948,0,0,0,0,0,-8.328,-8.3502,-8.3459,-8.3501,-8.3705,-8.3884,-8.391,-8.3888,-8.3785,-8.3892,-8.3918,-8.3844,-8.4208,-8.4088,-8.4131,-8.4282,-8.4646,-8.4669,-8.469,-8.4859,-8.4907,-8.4947,0,0,0,0,0,0,-8.3445,-8.3511,-8.3464,-8.3717,-8.3796,-8.3861,-8.3995,-8.3939,-8.405,-8.403,-8.3999,-8.4019,-8.4249,-8.4287,-8.4152,-8.4557,-8.441,-8.4442,-8.4524,-8.457,-8.4605,-8.4592,-8.4002,0,0,0,0,0,-8.3511,-8.365,-8.37,-8.3919,-8.396,-8.3971,-8.4048,-8.4024,-8.4106,-8.4139,-8.4181,-8.4264,-8.4396,-8.4485,-8.4609,-8.488,-8.4897,-8.5004,-8.504,-8.507,-8.5099,-8.5246,-8.5294,-8.4775,-8.4775,-8.4774,0,0,-8.3649,-8.3702,-8.3792,-8.3953,-8.4011,-8.4157,-8.4,-8.4161,-8.4269,-8.4163,-8.4372,-8.4407,-8.4497,-8.4743,-8.4854,-8.4782,-8.5246,-8.5098,-8.5122,-8.5134,-8.5274,-8.5323,-8.5366,-8.479,-8.4787,-8.4785,0,0,-8.3974,-8.4028,-8.4216,-8.4278,-8.4367,-8.4373,-8.4418,-8.4492,-8.451,-8.4719,-8.4643,-8.4771,-8.5,-8.5068,-8.5132,-8.5483,-8.542,-8.5525,-8.5714,-8.5858,-8.5899,-8.5935,-8.6062,-8.6107,-8.5552,-8.5553,-8.5553,0,-8.4135,-8.435,-8.432,-8.4487,-8.456,-8.447,-8.4661,-8.4722,-8.4849,-8.4902,-8.4819,-8.5105,-8.5159,-8.542,-8.5505,-8.556,-8.5612,-8.5516,-8.5895,-8.5931,-8.5964,-8.6085,-8.6132,-8.5565,-8.5564,-8.5563,-8.5561,0,-8.4543,-8.4694,-8.4835,-8.4959,-8.5048,-8.5226,-8.5224,-8.5318,-8.5286,-8.5301,-8.5516,-8.5577,-8.5713,-8.5772,-8.5744,-8.6031,-8.5983,-8.5898,-8.5751,-8.6027,-8.6139,-8.6185,-8.5583,-8.5578,-8.5575,-8.5572,0,0,-8.498,-8.5084,-8.5136,-8.5192,-8.5284,-8.54,-8.5574,-8.5705,-8.5788,-8.5878,-8.6024,-8.6219,-8.6141,-8.6215,-8.6192,-8.6318,-8.6594,-8.6218,-8.622,-8.6287,-8.6916,-8.6981,-8.7034,-8.6552,-8.656,-8.6567,-8.6909,0,-8.5311,-8.5613,-8.5591,-8.5877,-8.6016,-8.5932,-8.6084,-8.6158,-8.6176,-8.6298,-8.6318,-8.6458,-8.6343,-8.6387,-8.6507,-8.6535,-8.672,-8.651,-8.669,-8.6696,-8.6672,-8.7093,-8.7162,-8.7482,-8.6952,-8.696,-8.6965,0,-8.5738,-8.5842,-8.6142,-8.6213,-8.6271,-8.6408,-8.6527,-8.6643,-8.6726,-8.673,-8.6812,-8.6768,-8.6945,-8.6792,-8.7036,-8.6894,-8.6966,-8.6991,-8.7002,-8.702,-8.6849,-8.7124,-8.7583,-8.7632,-8.7034,-8.7029,-8.7024,0,-8.6029,-8.6244,-8.6451,-8.65,-8.6589,-8.6687,-8.6728,-8.6801,-8.6882,-8.6986,-8.7038,-8.7162,-8.723,-8.7328,-8.732,-8.7208,-8.7569,-8.7414,-8.7579,-8.758,-8.7661,-8.7656,-8.814,-8.7704,-8.7703,-8.7702,-8.7701,0,-8.6402,-8.6589,-8.6582,-8.671,-8.6918,-8.689,-8.7097,-8.7127,-8.7193,-8.7326,-8.726,-8.7387,-8.7367,-8.7494,-8.7489,-8.7693,-8.7724,-8.7734,-8.7731,-8.7741,-8.7741,-8.779,-8.7768,-8.7715,-8.7712,-8.771,-8.7708,0,-8.6763,-8.6765,-8.6986,-8.7051,-8.7071,-8.7222,-8.7278,-8.7399,-8.7411,-8.758,-8.7619,-8.7639,-8.7785,-8.7786,-8.7953,-8.795,-8.82,-8.8171,-8.8173,-8.8168,-8.8333,-8.8319,-8.8867,-8.8939,-8.8455,-8.8459,-8.8463,0,-8.7002,-8.7143,-8.7223,-8.7307,-8.7355,-8.7491,-8.7572,-8.755,-8.7638,-8.7742,-8.7852,-8.7992,-8.8103,-8.8341,-8.8372,-8.85,-8.8474,-8.8657,-8.8493,-8.85,-8.848,-8.8472,-8.8487,-8.869,-8.8696,-8.87,-8.8704,0,-8.7426,-8.742,-8.754,-8.7661,-8.776,-8.7854,-8.7941,-8.8013,-8.8002,-8.8104,-8.8252,-8.8338,-8.8509,-8.8649,-8.8773,-8.8817,-8.8761,-8.8755,-8.88,-8.8814,-8.881,-8.8816,-8.8263,-8.8743,-8.8739,-8.8736,-8.8734,-8.8732,-8.7734,-8.7857,-8.7932,-8.8068,-8.8131,-8.8213,-8.8331,-8.8357,-8.848,-8.8617,-8.8596,-8.8763,-8.8841,-8.9001,-8.9056,-8.9187,-8.9123,-8.9188,-8.9205,-8.9222,-8.9241,-8.8787,-8.9209,-8.9208,-8.9207,-8.9206,-8.9205,0,-8.8157,-8.8201,-8.8326,-8.8449,-8.8557,-8.8491,-8.8584,-8.8678,-8.8825,-8.8902,-8.9012,-8.9184,-8.932,-8.936,-8.9492,-8.9589,-8.9567,-8.9625,-8.9619,-8.963,-8.929,-8.9238,-8.9641,-8.9641,-8.9641,-8.9641,-8.964,-8.964,-8.839,-8.8594,-8.8597,-8.8832,-8.8875,-8.9036,-8.9095,-8.9172,-8.9234,-8.9427,-8.9539,-8.9564,-8.9628,-8.9764,-8.9886,-8.9895,-8.9947,-9.0017,-9.0016,-8.9697,-8.9654,-8.9612,-8.9564,-9.0028,-9.0029,-9.0345,-9.0348,-9.035]}]]